Location: Newark
(25.6108°S, 54.5803°W)
Time: 20:51:46
(UTC+00:00)

Courier 1B - Pass Details

Date: 04 November 2020
Orbit: 962 x 1209 km, 28.3° (Epoch: 24 November)

Event Time Altitude Azimuth Distance (km) Brightness Sun altitude
Rises 21:41:50 0° 308° (NW) 3,683 11.1 2.4°
Reaches altitude 10° 21:44:33 10° 314° (NW) 2,763 10.3 1.8°
Maximum altitude 21:50:55 46° 25° (NNE) 1,371 8.1 0.4°
Drops below altitude 10° 21:57:42 10° 96° (E) 2,940 9.5 -1.0°
Sets 22:00:40 0° 101° (ESE) 3,939 10.1 -1.7°
